User: anonymous   Login
Location: Unspecified
(0.0000°N, 0.0000°E)
Time: 20:50:20
(UTC+00:00)
Language:

STARLINK-5445 - Orbit

View from above orbital plane
View from above orbital plane
View from above satellite
View from above satellite

Ground track
Ground track

The orbit is defined by the following mean orbital elements,

1 54790U          26145.13822130 +.00000000 +00000-0 +14329-4 0 00009
2 54790  53.2129  45.7178 0001198  79.0430 281.0696 15.08837461    08
Epoch (UTC): 25 May 2026 03:19:02
Eccentricity: 0.0001198
inclination: 53.2129°
perigee height: 539 km
apogee height: 541 km
right ascension of ascending node: 45.7178°
argument of perigee: 79.0430°
revolutions per day: 15.08837461
mean anomaly at epoch: 281.0696°

The dashed part of the orbit path shows where the satellite is in the earth's shadow,  

DLR